Regional Weather Roundup
Issued by NWS Newport/Morehead, NC

Current Version | Previous Version | Text Only | Print | Product List | Glossary Off
Versions: 1 2 3 4 5 6 7 8 9 10 11 12 13 14 15 16 17 18 19 20 21 22 23 24 25 26 27 28 29 30 31 32 33 34 35 36 37 38 39 40 41 42 43 44 45 46 47 48 49 50
000 ASUS42 KMHX 011825 RWRMHX WEATHER ROUNDUP FOR EASTERN NORTH CAROLINA NATIONAL WEATHER SERVICE NEWPORT/MOREHEAD CITY NC 200 PM EDT SUN MAY 01 2016 NOTE: "FAIR" INDICATES FEW OR NO CLOUDS BELOW 12,000 FEET WITH NO SIGNIFICANT WEATHER AND/OR OBSTRUCTIONS TO VISIBILITY NCZ015>017-031-032-045>047-102-103-011900- NORTH COAST CITY SKY/WX TMP DP RH WIND PRES REMARKS EDENTON NOT AVBL ELIZABETH CITY CLOUDY 72 65 78 SW7 30.08F KITTY HAWK CLOUDY 76 64 64 S6 30.08S MANTEO NOT AVBL $$ NCZ045>047-081-094-103-104-011900- CENTRAL COAST CITY SKY/WX TMP DP RH WIND PRES REMARKS FRISCO CLOUDY 71 64 78 S7 30.11F SWANQUARTER NOT AVBL $$ NCZ095-097-098-100-101-011900- SOUTHERN COAST CITY SKY/WX TMP DP RH WIND PRES REMARKS BEAUFORT PTSUNNY 73 67 81 SW10 30.11F CEDAR ISLAND NOT AVBL JACKSONVILLE CLOUDY 77 62 59 SW13 30.09F PINEY ISLAND NOT AVBL WILMINGTON PTSUNNY 79 62 56 SW14G21 30.09F $$ NCZ011>013-027>030-043-044-078>080-089-090>093-098-011900- COASTAL PLAIN CITY SKY/WX TMP DP RH WIND PRES REMARKS AHOSKIE CLOUDY 69 64 85 S7 30.08F CLINTON LGT RAIN 69 69 99 S3 30.08F ELIZABETHTOWN RAIN 68 68 100 SE8 30.10F GOLDSBORO CLOUDY 70 70 100 S6 30.06F GREENVILLE LGT RAIN 70 68 94 S6 30.09F HAVELOCK CLOUDY 77 65 66 SW15 30.11F KENANSVILLE LGT RAIN 71 65 82 SW3 30.11F KINSTON RAIN 72 68 88 SW8 30.11S NEW BERN MOSUNNY 78 63 59 S16G22 30.10F RICHLANDS LGT RAIN 71 68 90 SW6 30.11S ROCKY MOUNT CLOUDY 70 66 87 S13 30.06F WASHINGTON LGT RAIN 73 66 81 SW5 30.08F WHITEVILLE HVY RAIN 68 65 90 SW6 30.12R $$ AMZ130-135-150-152-154-156-158-170-250-252-270-ANZ085-086-088-633-658-670-011900- MARINE OBSERVATIONS STATION/POSITION TIME TEMP WIND PRES WAVE SWELL AIR SEA DIR/SP/G HT/PER HT/PER (UTC) (F) (DEG/KT/KT) (MB) (FT/S) (FT/S) CHESAPEAKE LIGHT 1800 57 170/ 11/ 11 1019.3 64 E VA BEACH 1750 57 53 140/ 8/ 10 1018.8 5/ 9 5/ 9 DUCK 1800 73 67 210/ 12/ 14 1018.2 2 E DUCK 1811 60 N/A 4/ 9 2/11 OREGON INLET 1800 69 60 190/ 10/ 11 1019.3 13E OREGON INLT 1800 59 N/A 5/10 5/10 HATTERAS CG 1800 73 67 180/ 5/ 10 1019.5 DIAMOND BUOY 1750 74 74 190/ 16/ 17 1019.5 4/10 3/10 CAPE LOOKOUT 1800 71 180/ 9/ 10 1019.3 BEAUFORT LAB 1800 72 67 200/ 8/ 10 1018.8 30 SE NEW RVR IN 1725 71 N/A 4/10 2/11 27 SE WRIGHTSVLE 1808 74 72 180/ 8/ 12 1019.6 5 SE WRIGHTSVLE 1808 72 69 180/ 6/ 10 1019.9 225 S CAPE HAT 1750 72 140/ 10/ 14 1020.7 4/10 3/10 41 SE CHARLESTON 1750 75 73 170/ 10/ 14 1018.4 5/ 6 3/ 6 $$

USA.gov is the U.S. government's official web portal to all federal, state and local government web resources and services.